Regional Weather Roundup
Issued by NWS Portland, ME

Home | Current Version | Previous Version | Text Only | Print | Product List | Glossary On
Versions: 1 2 3 4 5 6 7 8 9 10 11 12 13 14 15 16 17 18 19 20 21 22 23 24 25 26 27 28 29 30 31 32 33 34 35 36 37 38 39 40 41 42 43 44 45 46 47 48 49 50
000
ASUS41 KGYX 281305
RWRGYX
WEATHER ROUNDUP FOR MAINE AND NEW HAMPSHIRE
NATIONAL WEATHER SERVICE GRAY ME
900 AM EDT FRI JUL 28 2017

MEZ002-005-006-010-012-015-018-020-021-024-026-027-029-281400-
MAINE

CITY           SKY/WX    TMP DP  RH WIND       PRES   REMARKS
PORTLAND       MOSUNNY   73  62  68 NW6       29.84R
SANFORD          N/A     75  63  66 NW8       29.85R
WISCASSET      SUNNY     74  60  61 MISG      29.84R
ROCKLAND       SUNNY     72  64  76 VRB7      29.81S
FRYEBURG       SUNNY     73  63  70 NE5       29.85S
LEWISTONAUBURN MOSUNNY   71  60  68 N13       29.85R
AUGUSTA        PTSUNNY   68  59  73 NW9G17    29.84R
WATERVILLE     MOSUNNY   69  60  73 NW7       29.81R
BANGOR         MOSUNNY   70  63  78 W8        29.81R
GREENVILLE       N/A    N/A N/A N/A NW10      29.84R
MILLINOCKET    CLOUDY    64  32  30 N6        29.82R
HOULTON        CLOUDY    64  56  75 N7        29.78R
PRESQUE ISLE   CLOUDY    64  53  67 NW8       29.80S
FRENCHVILLE    LGT RAIN  61  48  62 NW20G26   29.79S
CARIBOU        PTSUNNY   65  52  62 NW13G18   29.79R
$$

NHZ002-005-008-009-011-012-014-281400-
NEW HAMPSHIRE

CITY           SKY/WX    TMP DP  RH WIND       PRES   REMARKS
PORTSMOUTH     PTSUNNY   74  63  69 W8        29.83S
ROCHESTER      MOSUNNY   74  61  63 NW9       29.84S
NASHUA         MOSUNNY   73  64  73 NW8       29.86F
MANCHESTER     MOSUNNY   72  60  66 NW9       29.85F
CONCORD        MOSUNNY   72  62  71 VRB7      29.87S
PLYMOUTH       FAIR      70  58  67 W6        29.88S
BERLIN         CLOUDY    64  53  67 VRB5      29.90R
WHITEFIELD     PTSUNNY   64  56  75 NW5       29.91S
JAFFREY        SUNNY     71  62  73 N7        29.90F
KEENE          PTSUNNY   66  63  90 CALM      29.90S
LEBANON        SUNNY     68  62  81 W3        29.90R
MT WASHINGTON  PTSUNNY   45  41  87 NW38G45     N/A
$$

VTZ005-007-008-281400-
VERMONT

CITY           SKY/WX    TMP DP  RH WIND       PRES   REMARKS
ST JOHNSBURY     N/A     66  56  70 MISG      29.89F
MONTPELIER     MOSUNNY   62  58  86 NW5       29.96S
BURLINGTON     MOSUNNY   67  55  65 N8        29.93S
$$

MAZ007-012-024-CTZ003-RIZ002-NYZ038-NYZ072-281400-
SOUTHERN NEW ENGLAND AND NY

CITY           SKY/WX    TMP DP  RH WIND       PRES   REMARKS
BOSTON         MOSUNNY   75  64  68 NW12      29.85F
WORCESTER      SUNNY     69  61  75 NW9       29.89F
NANTUCKET      CLOUDY    71  69  93 W10       29.86F
PROVIDENCE     PTSUNNY   75  68  78 W3        29.87S
HARTFORD       PTSUNNY   70  66  87 NE7       29.88S
ALBANY         PTSUNNY   69  63  81 N7        29.91R
NEW YORK CITY  CLOUDY    73  70  90 NE9       29.86S FOG
$$

ANZ081-ANZ082-ANZ150-NHZ014-MEZ023>029-281400-
COASTAL MARINE OBSERVATIONS

STATION/POSITION TIME  TEMP    WIND        PRES    WAVE
                       AIR SEA DIR/SP/G            HT/PER
                 (UTC) (F)     (DEG/KT/KT) (MB)    (FT/S)
MOUNT DESERT ROC 1300   54                 1009.2S
MATINICUS ROCK   1200   58     280/  9/ 10 1009.0R
ISLE OF SHOALS   1200   67     300/  8/ 10 1010.1R
JEFFREYS LEDGE   1206      65                N/A     2/ 8
CASHES LEDGE BUO 1150   68 63              1009.8    3/ 8
GEORGES BANK BUO 1150   66 64              1011.6    3/ 8
$$

.............KEY..............
   WCI - WIND CHILL
   TC  - TEMPERATURE IN CELSIUS
   VSB - VISIBILITY IN MILES
   HX  - HEAT INDEX
   FAIR- INDICATES FEW OR NO CLOUDS BELOW 12,000 FT, WITH NO
         SIGNIFICANT WEATHER AND/OR OBSTRUCTIONS TO VISIBILITY.






USA.gov is the U.S. government's official web portal to all federal, state and local government web resources and services.